Weather History for Falls City, NE

Change the Weather History Date:

Saturday, October 1, 2011

  Actual Average Record
Temperature  
Mean Temperature 54 °F -  
Max Temperature 71 °F 76 °F 94 °F (1976)
Min Temperature 37 °F 48 °F 28 °F (1985)
Degree Days  
Heating Degree Days 11    
Growing Degree Days 4 (Base 50)    
Moisture  
Dew Point 39 °F    
Average Humidity 63    
Maximum Humidity 93    
Minimum Humidity 30    
Precipitation  
Precipitation 0.00 in - - ()
Sea Level Pressure  
Sea Level Pressure 30.25 in    
Wind  
Wind Speed 2 mph (SE)    
Max Wind Speed 9 mph    
Max Gust Speed -    
Visibility 10 miles    
Events      
Averages and records for this station are not official NWS values.
T = Trace of Precipitation, MM = Missing Value Source: NWS Daily Summary

Daily Weather History Graph

Daily Weather History Graph

Search for Another Location

Airport:

Trip Planner

Search our weather history database for the weather conditions in past years. The results will help you decide how hot, cold, wet, or windy it might be!

Date:

Astronomy

Oct. 01, 2011 Rise Set
Actual Time 7:18 AM CDT 7:05 PM CDT
Civil Twilight 6:51 AM CDT 7:32 PM CDT
Nautical Twilight 6:19 AM CDT 8:03 PM CDT
Astronomical Twilight 5:48 AM CDT 8:35 PM CDT
Moon 12:25 PM CDT (10/1) 10:03 PM CDT (10/1)
Length of Visible Light 12h 40m
Length of Day
11h 46m
Waxing Crescent, 24% of the Moon is Illuminated
Oct 1
Waxing Crescent
Oct 3
First Quarter
Oct 11
Full
Oct 19
Last Quarter
Oct 26
New

Hourly Weather History & Observations

Time (CDT) Temp. Dew Point Humidity Pressure Visibility Wind Dir Wind Speed Gust Speed Precip Events Conditions
12:53 AM 41.0 °F 37.0 °F 86% 30.21 in 10.0 mi Calm Calm - N/A   Clear
1:53 AM 45.0 °F 37.0 °F 74% 30.22 in 10.0 mi Calm Calm - N/A   Clear
2:53 AM 39.0 °F 37.0 °F 93% 30.23 in 10.0 mi Calm Calm - N/A   Clear
3:53 AM 42.1 °F 37.9 °F 85% 30.23 in 10.0 mi Calm Calm - N/A   Clear
4:53 AM 39.0 °F 37.0 °F 93% 30.24 in 10.0 mi Calm Calm - N/A   Clear
5:53 AM 39.0 °F 36.0 °F 89% 30.26 in 10.0 mi Calm Calm - N/A   Clear
6:53 AM 39.0 °F 36.0 °F 89% 30.28 in 10.0 mi Calm Calm - N/A   Clear
7:53 AM 37.0 °F 35.1 °F 93% 30.30 in 10.0 mi Calm Calm - N/A   Clear
8:53 AM 44.6 °F 41.0 °F 87% 30.30 in 10.0 mi Calm Calm - N/A   Clear
9:53 AM 51.8 °F 42.8 °F 71% 30.32 in 10.0 mi SE 5.8 mph - N/A   Clear
10:53 AM 60.1 °F 43.0 °F 53% 30.32 in 10.0 mi SE 4.6 mph - N/A   Clear
11:53 AM 66.0 °F 42.1 °F 42% 30.31 in 10.0 mi Variable 4.6 mph - N/A   Clear
12:53 PM 68.0 °F 37.9 °F 33% 30.30 in 10.0 mi SE 6.9 mph - N/A   Clear
1:53 PM 71.1 °F 37.9 °F 30% 30.27 in 10.0 mi SSE 5.8 mph - N/A   Clear
2:53 PM 69.8 °F 39.2 °F 33% 30.25 in 10.0 mi SE 6.9 mph - N/A   Clear
3:53 PM 71.1 °F 39.0 °F 31% 30.23 in 10.0 mi ESE 8.1 mph - N/A   Clear
4:53 PM 70.0 °F 39.0 °F 32% 30.22 in 9.0 mi ESE 9.2 mph - N/A   Clear
5:53 PM 68.0 °F 39.0 °F 35% 30.22 in 9.0 mi ESE 8.1 mph - N/A   Clear
6:53 PM 62.6 °F 39.2 °F 42% 30.21 in 10.0 mi ESE 6.9 mph - N/A   Clear
7:53 PM 55.9 °F 41.0 °F 57% 30.22 in 6.0 mi ESE 5.8 mph - N/A   Haze
8:53 PM 55.0 °F 39.9 °F 57% 30.22 in 10.0 mi SE 4.6 mph - N/A   Clear
9:53 PM 52.0 °F 41.0 °F 66% 30.22 in 10.0 mi SE 3.5 mph - N/A   Clear
10:53 PM 50.0 °F 41.0 °F 71% 30.22 in 10.0 mi SE 4.6 mph - N/A   Clear
11:53 PM 48.9 °F 39.9 °F 71% 30.23 in 10.0 mi SE 3.5 mph - N/A   Clear